Other Public Products
Issued by NWS Grand Forks, ND

Home | Current Version | Previous Version | Text Only | Print | Product List | Glossary On
Versions: 1 2 3 4 5 6 7 8 9 10 11 12 13 14 15 16 17 18 19 20 21 22 23 24 25 26 27 28 29 30 31 32 33 34 35 36 37 38 39 40 41 42 43 44 45 46 47 48 49 50
000
FPUS83 KFGF 260131
OPUFGF
PRAIRIE TO PINES WEATHER ROUNDUP
NATIONAL WEATHER SERVICE EASTERN NORTH DAKOTA/GRAND FORKS ND
700 PM CST TUE NOV 25 2014

 **SATELLITE DATA USED TO AUGMENT SKY COVER AT AUTOMATED STATIONS**
 *****  WEATHER ACROSS EASTERN NORTH DAKOTA  *****

CITY           SKY/WX    TMP DP  RH WIND       PRES   REMARKS
GRAND FORKS    LGT SNOW  19  16  86 N13       30.01R FOG     WCI   7
GRAND FORKS AF LGT SNOW  18  16  93 NE12      30.01R FOG     WCI   5
GRAND CITY NWS   N/A     18 N/A N/A N9          N/A  WCI   6
BUXTON           N/A     21  17  85 NE9         N/A  WCI  11
DEVILS LAKE    CLOUDY    16   5  62 NE20      29.96R WCI  -1
FARGO          CLOUDY    25  16  68 E5        29.93R WCI  19
WAHPETON ARPT  CLOUDY    23  16  74 SE8       29.91S WCI  14
$$

 *****  WEATHER ACROSS CENTRAL AND WESTERN NORTH DAKOTA  *****

CITY           SKY/WX    TMP DP  RH WIND       PRES   REMARKS
JAMESTOWN      SNOW      26  23  88 E16       29.83R VSB 1/2 WCI  14
BISMARCK       FLURRIES  33  32  96 NW10      29.74R WCI  25
MINOT          LGT SNOW  18  14  84 N17       29.96R FOG     WCI   3
MINOT AFB      FLURRIES  14  12  92 N17       29.99R WCI  -3
GARRISON         N/A     21  18  88 NE18G26   29.86R WCI   6
WILLISTON      CLOUDY    21  15  78 N17       30.02R WCI   7
DICKINSON      CLOUDY    31  27  85 NW21G31   29.81R WCI  18
HETTINGER      FLURRIES  33  27  78 NW26G37   29.81R WCI  20
$$

 *****  OTHER OBSERVATIONS NORTHEAST NORTH DAKOTA  *****

CITY           SKY/WX    TMP DP  RH WIND       PRES   REMARKS
WALHALLA       FLURRIES  10   9  92 N13       30.10R WCI  -5
LANGDON        CLOUDY    10   7  85 NE15      30.01R WCI  -6
CAVALIER       LGT SNOW  14   9  79 N13       30.08R WCI   0
GRAFTON        LGT SNOW  14  10  85 N17       30.05R WCI  -3
CANDO          LGT SNOW  14   9  79 NE14G21   30.02R WCI  -1
FORT TOTTEN    NOT AVBL
ROLLA          FLURRIES   9   5  85 NE16      30.03R WCI  -9
RUGBY          MOCLDY    14  10  85 NE23G29   29.98R WCI  -5
 ***** THE ABOVE OBSERVATIONS ARE NON NWS ARE NOT QUALITY
        CONTROLLED AND MAY MIS-REPORT RAIN FOR SNOW...
$$

 *****  OTHER OBSERVATIONS SOUTHEAST NORTH DAKOTA *****

CITY           SKY/WX    TMP DP  RH WIND       PRES   REMARKS
COOPERSTOWN    NOT AVBL
VALLEY CITY    LGT SNOW  23  23 100 E9        29.88R WCI  13
OAKES          LGT SNOW  27  27 100 E14       29.83R WCI  15
GWINNER        MOCLDY    28  23  80 E13       29.86R WCI  18
SHEYENNE NWR     N/A     24  19  80 SE9       29.95  WCI  14
BUFFALO        NOT AVBL
WYNDMERE         N/A     25  19  80 SE10        N/A  WCI  15
 ***** THE ABOVE OBSERVATIONS ARE NON NWS ARE NOT QUALITY
       CONTROLLED AND MAY MIS-REPORT RAIN FOR SNOW...
$$

  *****  WEATHER ACROSS NORTHERN MINNESOTA  *****

CITY           SKY/WX    TMP DP  RH WIND       PRES   REMARKS
FLAG ISLAND    NOT AVBL
WARROAD        FLURRIES  12   9  85 N6        30.02R WCI   3
ROSEAU         FAIR      14   9  79 NE8       30.02R WCI   3
HALLOCK        LGT SNOW  14  10  85 N13G18    30.05R WCI   0
THF RVR FALLS  CLOUDY    21  16  79 NE7       29.98R WCI  13
HALSTAD          N/A     24  18  78 N12         N/A  WCI  12
FOSSTON        CLOUDY    18  12  79 NE6       29.96R WCI   9
BAUDETTE       FLURRIES  16  12  84 NE6       29.98R WCI   7
WASKISH        CLOUDY    18  16  93 CALM      29.98R
CROOKSTON      CLOUDY    21  16  79 NE7       30.00R WCI  13
$$
  *****  WEATHER ACROSS CENTRAL AND WEST MINNESOTA  *****

CITY           SKY/WX    TMP DP  RH WIND       PRES   REMARKS
BEMIDJI        CLOUDY    18  11  75 E5        29.95R WCI  11
PARK RAPIDS    CLOUDY    19  10  68 SE5       29.93R WCI  12
WADENA         FAIR      18   9  68 E5        29.93R WCI  11
DETROIT LAKES  FAIR      23  14  68 SE8       29.92R WCI  14
MOORHEAD       CLOUDY    25  19  80 E3        29.94R
FERGUS FALLS   FAIR      21  10  63 SE9       29.94S WCI  11
ELBOW LAKE       N/A     22  14  72 SE9       29.90S WCI  11
MORRIS MN      MOCLDY    23  16  74 SE13      29.90S WCI  11
STAPLES        FAIR      16   9  73 SE3       29.95S
WHEATON        CLOUDY    21  18  86 SE13      29.91S WCI   9
$$
  *****  WEATHER ELSEWHERE ACROSS MINNESOTA  *****

CITY           SKY/WX    TMP DP  RH WIND       PRES   REMARKS
DULUTH         CLOUDY    17   7  64 CALM      29.98R
INTRNTL FALLS  MOCLDY     7   3  84 CALM      29.98S
ELY            CLOUDY     9   5  85 CALM      29.97R
CLOQUET        CLOUDY    18  10  73 CALM      29.99S
BRAINERD       CLOUDY    17   7  64 CALM      29.97S
HIBBING        CLOUDY    19   4  51 CALM      29.97S
ALEXANDRIA     CLOUDY    20  12  71 SE12      29.92F WCI   8
SAINT CLOUD    CLOUDY    21  11  65 SE5       29.98F WCI  15
MINNEAPOLIS    CLOUDY    23  15  71 SE8       30.02F WCI  14
$$

  *****  WEATHER ACROSS SOUTH DAKOTA  *****

CITY           SKY/WX    TMP DP  RH WIND       PRES   REMARKS
SIOUX FALLS    CLOUDY    34  22  61 SE14      29.83F WCI  25
BROOKINGS      NOT AVBL
WATERTOWN      CLOUDY    30  22  72 SE13      29.82F WCI  20
HURON          MOCLDY    33  25  72 SE9       29.78F
SISSETON         N/A     25  21  85 S9        29.87S WCI  15
ABERDEEN       LGT SNOW  32  29  88 SE14      29.80F FOG     WCI  22
MITCHELL       CLOUDY    34  27  75 SE7       29.79F
PIERRE         CLOUDY    34  32  92 W10       29.78S
MOBRIDGE       CLOUDY    35  33  92 NW5       29.72S
RAPID CITY     CLOUDY    36  24  62 NW17      29.87R
$$

  *****  SOME WEATHER IN NEARBY STATES *****

CITY           SKY/WX    TMP DP  RH WIND       PRES   REMARKS
GLASGOW MT     CLOUDY    25  19  78 N14       30.09R WCI  13
GREAT FALLS MT CLOUDY    30  27  88 SW7       30.13R WCI  23
CHEYENNE WY    CLOUDY    32  27  81 N17G26    29.91R WCI  21
SCOTTSBLUFF NE MIX PCPN  34  32  92 W8        29.93S
OMAHA NE       CLOUDY    38  24  57 S14       29.95F
DES MOINES IA  MOCLDY    31  10  41 SE10      30.05S WCI  22
DAVENPORT IA   FAIR      14  10  84 SE6       30.14S WCI   5
CHICAGO IL     FAIR      20  15  81 SW5       30.17R WCI  13
EAU CLAIRE WI  CLOUDY    22  14  71 S5        30.06R WCI  16
LA CROSSE WI   FAIR      21  13  71 SW3       30.10R
$$

  *****  SOME NATIONAL WEATHER *****

CITY           SKY/WX    TMP DP  RH WIND       PRES   REMARKS
LA GUARDIA NY  CLOUDY    53  28  38 W14       30.08R
RALEIGH NC     LGT RAIN  53  41  63 CALM      30.10R
ATLANTA GA     CLOUDY    54  31  41 NW10      30.04F
NEW ORLEANS LA MOCLDY    52  32  46 NW13G21   30.20R
OKLAHOMA CITY  CLOUDY    45  28  51 S7        30.08F
ALBUQUERQUE NM PTCLDY    46   2  16 N12       30.26S
SALT LAKE CITY MOCLDY    44  29  55 SE14      30.29S
LOS ANGELES CA CLEAR     66  47  50 SW5       30.27S
BOISE ID       CLOUDY    52  42  69 NW5       30.25S
SEATTLE WA     CLOUDY    55  54  94 S17       30.16F
$$

*** WEATHER ACROSS MANITOBA...SASKATCHEWAN AND ONTARIO ***
                ***ONTARIO***

CITY           SKY/WX    TMP DP  RH WIND       PRES   REMARKS
GERALDTON      FLURRIES  10   7  85 W3        29.95R
THUNDER BAY    CLOUDY    14   9  79 W5        30.04R WCI   6
SIOUX LOOKOUT  CLOUDY     9   3  78 N3        29.99R
TORONTO        CLOUDY    34  25  69 W14G21    30.10R WCI  24
BIG TROUT LK   CLEAR    -18 -24  76 W8        30.04R WCI -37
PICKLE LAKE    CLEAR     -4  -9  77 W6        29.97R WCI -16
DRYDEN         FLURRIES  10   7  85 N3        29.99
KENORA         LGT SNOW  10   7  85 N9        30.00R WCI  -2
$$
                *** MANITOBA***

CITY           SKY/WX    TMP DP  RH WIND       PRES   REMARKS
BRANDON        FLURRIES   7   1  78 NE18      30.11R WCI -12
DAUPHIN        CLEAR     -6  -9  84 N6        30.22R WCI -18
ISLAND LAKE    CLEAR    -13 -24  58 NW10      30.13R WCI -32
PILOT MOUND      N/A      7   5  92 N12         N/A  WCI  -9
THE PAS        CLEAR    -11 -17  77 NW6       30.26R WCI -25
THOMPSON       CLEAR    -18 -24  76 NW7       30.18S WCI -35
WINNIPEG       MOCLDY     7   0  72 N18       30.14R WCI -12
LYNN LAKE      CLEAR    -20 -26  76 W7        30.20R WCI -37
CHURCHILL      CRYSTALS -11 -17  77 NW21      30.09S DRFTSNOWWCI -37
GILLAM         CLEAR    -17 -24  70 W9        30.13R WCI -36
$$
                ***SASKATCHEWAN***

CITY           SKY/WX    TMP DP  RH WIND       PRES   REMARKS
ESTEVAN        FLURRIES  14  10  85 NE9       30.04R WCI   2
KINDERSLEY     FLURRIES  14   9  79 N6        30.15  WCI   5
LLOYDMINSTER   CLOUDY     5   3  92 N5        30.18R WCI  -4
PRINCE ALBERT  FLURRIES   3  -4  72 N9        30.25R WCI -11
REGINA         FLURRIES  10   5  79 NE13      30.14R WCI  -5



USA.gov is the U.S. government's official web portal to all federal, state and local government web resources and services.